Hourly Weather San Carlos

Today, 4 July, Saturday

Time Temperature Precipitation Wind Pressure Humidity
00:00 +25°C° 0.1 mm 1 mps 744 mmHg 96%
01:00 +25°C° 0 mm 1 mps 744 mmHg 96%
02:00 +25°C° 0.2 mm 1 mps 744 mmHg 96%
03:00 +25°C° 0.2 mm 1 mps 744 mmHg 96%
04:00 +25°C° 0.2 mm 1 mps 744 mmHg 96%
05:00 +23°C° 0 mm 0 mps 745 mmHg 95%
06:00 +24°C° 0 mm 0 mps 745 mmHg 94%
07:00 +24°C° 0 mm 0 mps 745 mmHg 94%
08:00 +28°C° 0 mm 1 mps 745 mmHg 86%
09:00 +29°C° 0 mm 1 mps 745 mmHg 77%
10:00 +31°C° 0 mm 2 mps 746 mmHg 69%
11:00 +31°C° 0 mm 2 mps 745 mmHg 67%
12:00 +32°C° 0 mm 2 mps 744 mmHg 64%
13:00 +34°C° 0 mm 2 mps 744 mmHg 61%
14:00 +32°C° 0 mm 1 mps 743 mmHg 63%
15:00 +32°C° 0 mm 1 mps 743 mmHg 65%
16:00 +32°C° 0 mm 1 mps 742 mmHg 68%
17:00 +30°C° 0 mm 1 mps 743 mmHg 74%
18:00 +28°C° 0 mm 1 mps 743 mmHg 81%
19:00 +24°C° 0 mm 0 mps 743 mmHg 87%
20:00 +24°C° 0 mm 0 mps 744 mmHg 89%
21:00 +26°C° 0 mm 1 mps 744 mmHg 90%
22:00 +25°C° 0 mm 1 mps 745 mmHg 91%
23:00 +25°C° 0 mm 1 mps 745 mmHg 92%

Tomorrow, 5 July, Sunday

Time Temperature Precipitation Wind Pressure Humidity
00:00 +25°C° 0 mm 1 mps 745 mmHg 92%
01:00 +25°C° 0 mm 1 mps 744 mmHg 92%
02:00 +24°C° 0 mm 1 mps 744 mmHg 92%
03:00 +24°C° 0 mm 1 mps 744 mmHg 92%
04:00 +24°C° 0 mm 1 mps 744 mmHg 92%
05:00 +25°C° 0 mm 1 mps 744 mmHg 89%
06:00 +24°C° 0 mm 0 mps 745 mmHg 86%
07:00 +25°C° 0 mm 0 mps 745 mmHg 84%
08:00 +29°C° 0 mm 1 mps 745 mmHg 78%
09:00 +30°C° 0 mm 1 mps 746 mmHg 72%
10:00 +32°C° 0 mm 1 mps 746 mmHg 66%
11:00 +32°C° 0 mm 1 mps 745 mmHg 63%
12:00 +33°C° 0 mm 1 mps 744 mmHg 61%
13:00 +34°C° 0 mm 2 mps 744 mmHg 59%
14:00 +33°C° 0.1 mm 1 mps 743 mmHg 64%
15:00 +32°C° 0.1 mm 1 mps 743 mmHg 68%
16:00 +31°C° 0.1 mm 1 mps 742 mmHg 73%
17:00 +30°C° 0.1 mm 1 mps 742 mmHg 78%
18:00 +28°C° 0.1 mm 1 mps 743 mmHg 83%
19:00 +26°C° 0.1 mm 1 mps 744 mmHg 89%
20:00 +26°C° 0 mm 1 mps 744 mmHg 90%
21:00 +25°C° 0 mm 1 mps 745 mmHg 91%
22:00 +25°C° 0 mm 1 mps 745 mmHg 93%
23:00 +25°C° 0 mm 1 mps 745 mmHg 93%

Day after tomorrow, 6 July, Monday

Time Temperature Precipitation Wind Pressure Humidity
00:00 +24°C° 0 mm 1 mps 745 mmHg 93%
01:00 +24°C° 0 mm 1 mps 744 mmHg 93%
02:00 +24°C° 0 mm 1 mps 744 mmHg 93%
03:00 +24°C° 0 mm 1 mps 744 mmHg 94%
04:00 +23°C° 0 mm 1 mps 744 mmHg 94%
05:00 +24°C° 0.2 mm 1 mps 745 mmHg 93%
06:00 +22°C° 0.2 mm 0 mps 745 mmHg 93%
07:00 +23°C° 0.2 mm 0 mps 746 mmHg 92%
08:00 +27°C° 0 mm 1 mps 746 mmHg 84%
09:00 +29°C° 0 mm 1 mps 746 mmHg 76%
10:00 +31°C° 0 mm 1 mps 746 mmHg 67%
11:00 +31°C° 0.3 mm 1 mps 745 mmHg 69%
12:00 +32°C° 0.3 mm 1 mps 745 mmHg 71%
13:00 +32°C° 0.3 mm 1 mps 744 mmHg 72%
14:00 +30°C° 1.9 mm 1 mps 744 mmHg 79%
15:00 +29°C° 1.9 mm 1 mps 743 mmHg 86%
16:00 +26°C° 1.9 mm 0 mps 743 mmHg 94%
17:00 +25°C° 1.2 mm 0 mps 743 mmHg 94%
18:00 +24°C° 1.2 mm 0 mps 744 mmHg 94%
19:00 +24°C° 1.2 mm 0 mps 744 mmHg 94%
20:00 +24°C° 0.3 mm 0 mps 745 mmHg 95%
21:00 +25°C° 0.3 mm 1 mps 745 mmHg 95%
22:00 +25°C° 0.3 mm 1 mps 745 mmHg 95%
23:00 +25°C° 0.2 mm 1 mps 745 mmHg 96%

7 July, Tuesday

Time Temperature Precipitation Wind Pressure Humidity
00:00 +25°C° 0.2 mm 1 mps 744 mmHg 96%
01:00 +24°C° 0.2 mm 1 mps 744 mmHg 97%
02:00 +24°C° 0.3 mm 1 mps 744 mmHg 97%
03:00 +24°C° 0.3 mm 1 mps 744 mmHg 97%
04:00 +24°C° 0.3 mm 1 mps 744 mmHg 97%
05:00 +25°C° 0 mm 1 mps 744 mmHg 96%
06:00 +23°C° 0 mm 0 mps 745 mmHg 95%
07:00 +24°C° 0 mm 0 mps 745 mmHg 94%
08:00 +27°C° 1.4 mm 1 mps 745 mmHg 92%
09:00 +28°C° 1.4 mm 1 mps 745 mmHg 90%
10:00 +29°C° 1.4 mm 1 mps 746 mmHg 88%
11:00 +29°C° 2 mm 1 mps 745 mmHg 87%
12:00 +29°C° 2 mm 1 mps 745 mmHg 87%
13:00 +30°C° 2 mm 1 mps 744 mmHg 86%
14:00 +29°C° 2.6 mm 1 mps 744 mmHg 89%
15:00 +28°C° 2.6 mm 1 mps 744 mmHg 93%
16:00 +27°C° 2.6 mm 1 mps 743 mmHg 96%
17:00 +26°C° 4 mm 1 mps 744 mmHg 97%
18:00 +25°C° 4 mm 1 mps 744 mmHg 98%
19:00 +25°C° 4 mm 1 mps 744 mmHg 99%
20:00 +25°C° 0.9 mm 1 mps 745 mmHg 98%
21:00 +23°C° 0.9 mm 0 mps 745 mmHg 98%
22:00 +22°C° 0.9 mm 0 mps 746 mmHg 97%
23:00 +22°C° 0.1 mm 0 mps 745 mmHg 97%

8 July, Wednesday

Time Temperature Precipitation Wind Pressure Humidity
00:00 +24°C° 0.1 mm 1 mps 745 mmHg 97%
01:00 +24°C° 0.1 mm 1 mps 744 mmHg 97%
02:00 +24°C° 0.1 mm 1 mps 744 mmHg 96%
03:00 +24°C° 0.1 mm 1 mps 744 mmHg 96%
04:00 +22°C° 0.1 mm 0 mps 744 mmHg 95%
05:00 +22°C° 0 mm 0 mps 744 mmHg 94%
06:00 +23°C° 0 mm 0 mps 745 mmHg 93%
07:00 +24°C° 0 mm 0 mps 745 mmHg 92%
08:00 +27°C° 0.1 mm 1 mps 745 mmHg 85%
09:00 +29°C° 0.1 mm 1 mps 745 mmHg 78%
10:00 +30°C° 0.1 mm 2 mps 745 mmHg 72%
11:00 +30°C° 0.9 mm 2 mps 745 mmHg 74%
12:00 +31°C° 0.9 mm 2 mps 744 mmHg 75%
13:00 +31°C° 0.9 mm 1 mps 744 mmHg 77%
14:00 +30°C° 0.4 mm 1 mps 743 mmHg 78%
15:00 +30°C° 0.4 mm 1 mps 743 mmHg 80%
16:00 +28°C° 0.4 mm 0 mps 743 mmHg 81%
17:00 +27°C° 1.1 mm 0 mps 743 mmHg 85%
18:00 +25°C° 1.1 mm 0 mps 743 mmHg 89%
19:00 +24°C° 1.1 mm 0 mps 744 mmHg 93%
20:00 +24°C° 0 mm 0 mps 744 mmHg 94%
21:00 +25°C° 0 mm 1 mps 745 mmHg 94%
22:00 +25°C° 0 mm 1 mps 745 mmHg 95%
23:00 +25°C° 0 mm 1 mps 745 mmHg 95%

9 July, Thursday

Time Temperature Precipitation Wind Pressure Humidity
00:00 +24°C° 0 mm 1 mps 745 mmHg 95%
01:00 +24°C° 0 mm 1 mps 744 mmHg 95%
02:00 +24°C° 0 mm 1 mps 744 mmHg 95%
03:00 +24°C° 0 mm 1 mps 744 mmHg 95%
04:00 +24°C° 0 mm 1 mps 744 mmHg 95%
05:00 +23°C° 0 mm 0 mps 745 mmHg 94%
06:00 +24°C° 0 mm 0 mps 745 mmHg 93%
07:00 +24°C° 0 mm 0 mps 746 mmHg 91%
08:00 +28°C° 0 mm 1 mps 746 mmHg 84%
09:00 +29°C° 0 mm 1 mps 746 mmHg 77%
10:00 +31°C° 0 mm 2 mps 746 mmHg 69%
11:00 +31°C° 0.1 mm 2 mps 745 mmHg 68%
12:00 +32°C° 0.1 mm 1 mps 745 mmHg 66%
13:00 +32°C° 0.1 mm 1 mps 744 mmHg 65%
14:00 +32°C° 0.1 mm 1 mps 744 mmHg 68%
15:00 +31°C° 0.1 mm 1 mps 743 mmHg 71%
16:00 +31°C° 0.1 mm 1 mps 743 mmHg 75%
17:00 +29°C° 0.3 mm 1 mps 743 mmHg 81%
18:00 +27°C° 0.3 mm 1 mps 743 mmHg 87%
19:00 +24°C° 0.3 mm 0 mps 744 mmHg 93%
20:00 +25°C° 0.1 mm 1 mps 744 mmHg 94%
21:00 +25°C° 0.1 mm 1 mps 745 mmHg 95%
22:00 +25°C° 0.1 mm 1 mps 745 mmHg 95%
23:00 +24°C° 0.7 mm 1 mps 745 mmHg 96%
Show more